Showing default

CANX-4, 40055

Orbit data source: Space-Track

CANX-4, 40055 is a payload satellite owned by UTIAS-SFL (CA) in SSO that was launched on Mon, 30 Jun 2014 UTC via a PSLV launch vehicle from the Sirharikota (SRI). Payloads include a variety of satellites, spacecraft, and rockets equipped with specific instruments for various scientific and technological missions. These include communications satellites like Starlink; space stations such as the ISS; scientific satellites like the Hubble; Earth observation satellites from companies like Planet Labs, Umbra, and HawkEye 360; GPS; miniature CubeSats for education and research; and military/defense satellites.

Loading next visibility...
CANX-4 details
Identifier
40055, 2014-034C
Orbit
SSO
Last TLE update9 hours ago
Origin
Flag of CAUTIAS-SFL (CA)
ManufacturerUTIAS-SFL
MissionOperational Amateur Technology
Bus & MotorGNB, Unknown motor
Mass7 kg wet, 7 kg dry
Launch date (UTC)
2014-06-30 (10 years ago)
Launch vehicle
PSLV
Launch site
Sirharikota (SRI)
Object type
Payload
Rocket body
Debris
Shape & HBRBox + 4 Ant, 0.2 m
Radar Cross Section0.060 m², Medium (>0.1 m² and < 1m²)

Expand to show TLE details & history

TLE from 9 hours ago
0 CANX-4
1 40055U 14034C   24348.04393339  .00002140  00000-0  29483-3 0  9997
2 40055  98.3774 190.2827 0013002 344.9390  15.1431 14.79320190563017
Epoch: 2024-12-13T01:03Z
Definitive object data (Epoch: 2024-12-13T01:03:15.844Z)
Latitude-0.00007°
Longitude92.25112°
Altitude625.678 km
Speed7.551 km/s
True Right ascension12h 41m 07s
True Declination0° 00' 00"
Sunlit
Object was in daylight at TLE epoch
Visualization TLE readout
Latitude-67.26744°
Longitude-107.81°
Altitude657.673 km
Speed7.527 km/s
Apparent Right ascension21h 41m 31s
Apparent Declination-55° 31' 13"
Sunlit
Object is in daylight
Visualization observer readout
Local Sidereal Time08:47:27
Azimuth205.371° SW
Elevation-72.011°
Doppler factor1
Orbital elements
Apogee altitude637.645 km
Perigee altitude619.424 km
Semi-major axis7,006.672 km
Eccentricity0.0013002
Inclination98.3774°
RAAN190.2827°
Arg. of periapsis344.939°
True anomaly15.18208°
Mean anomaly15.1431°
Eccentric anomaly15.16259°
Mean motion3.70063 °/min
BSTAR0.00029483
Orbital period97.28 mins
Loading maneuver chart data...
Loading historical data...
Loading historical data...
Loading historical data...
Loading historical data...
Loading historical data...
Loading historical data...
Loading historical data...
Other satellites on launch #34 in the year 2014 (2014-06-30 UTC)

CANX-4 Visibility forecast

Observer location: undefined°, undefined

Span
Click to sort rows by Start time (UTC) header in descending order
Start Az.
Max El. time (UTC)
Max El. Az.
Max El.
End time (UTC)
End Az.
5 mins2024-12-13 12:34:32.853Z103.072° ESE2024-12-13 12:37:32.853Z57.465° ENE16.234°2024-12-13 12:39:32.853Z28.43° NE
6 mins2024-12-13 14:10:32.853Z199.993° SSW2024-12-13 14:13:32.853Z279.577° WNW32.97°2024-12-13 14:16:32.853Z329.102° NNW
6 mins2024-12-14 01:59:32.853Z42.08° NE2024-12-14 02:02:32.853Z102.803° ESE28.405°2024-12-14 02:05:32.853Z156.563° SSE
5 mins2024-12-14 03:36:32.853Z327.25° NNW2024-12-14 03:38:32.853Z291.208° WNW20.573°2024-12-14 03:41:32.853Z245.369° WSW
|